Location: Unspecified
(0.0000°N, 0.0000°E)
Time: 15:36:59
(UTC+00:00)

Vanguard 1 - Pass Details

Date: 17 December 2025
Orbit: 651 x 3820 km, 34.2° (Epoch: 14 January)

Event Time Altitude Azimuth Distance (km) Brightness Sun altitude
Rises 03:50:03 0° 228° (SW) 5,218 13.6 -28.7°
Reaches altitude 10° 03:54:17 10° 224° (SW) 3,715 12.8 -27.7°
Maximum altitude 04:02:37 55° 148° (SSE) 1,177 10.6 -25.9°
Drops below altitude 10° 04:07:41 10° 70° (ENE) 2,292 12.5 -24.7°
Sets 04:09:44 0° 65° (ENE) 3,081 13.2 -24.3°
